Tracking 23099 objects as of 13-May-2021
HD Live streaming from Space Station
objects crossing your sky now

SL-19 DEB

Track SL-19 DEB now!
10-day predictions


NORAD ID: 23493
Int'l Code: 1994-085R
Perigee: 1,888.0 km
Apogee: 2,130.0 km
Inclination: 64.9 °
Period: 127.2 minutes
Semi major axis: 8379 km
RCS: 0.0464 m2 (small)
Launch date: December 26, 1994
Source: Commonwealth of Independent States (former USSR) (CIS)
Launch site: TYURATAM MISSILE AND SPACE COMPLEX (TTMTR)

Note: This is SATELLITE DEBRIS
aabbcc
Your satellite tracking list
Your tracking list is empty




NASA's NSSDC Master Catalog

Two Line Element Set (TLE):
1 23493U 94085R   21131.73962221  .00000372  00000-0  11269-1 0  9999
2 23493  64.9440  20.3872 0144381 190.3434 202.3189 11.31717210 89676
Source of the keplerian elements: AFSPC